Weather Roundup
Issued by NWS

Home | Current Version | Previous Version | Graphics & Text | Print | Product List | Glossary Off
Versions: 1 2 3 4 5 6 7 8 9 10 11 12 13 14 15 16 17 18 19 20 21 22 23 24 25 26 27 28 29 30 31 32 33 34 35 36 37 38 39 40 41 42 43 44 45 46 47 48 49 50

168
NZUS93 KARX 240010
HRRWXR

CURRENT HOURLY OBSERVATIONS ACROSS
MUCH OF THE UPPER MISSISSIPPI VALLEY
NATIONAL WEATHER SERVICE LA CROSSE WI
700 PM CDT SAT SEP 23 2017


...SOUTHEAST MINNESOTA...


CITY           SKY/WX    TMP DP  RH WIND       PRES   REMARKS
ROCHESTER      CLOUDY    82  64  54 S9        29.97S
ROCHESTER/MAYO FAIR      85  62  45 SE6       29.96S
WINONA         CLOUDY    81  64  57 CALM      29.95S
AUSTIN         CLEAR     82  61  47 S5        29.96R
ALBERT LEA     CLEAR     84  64  51 S6        29.94S
DODGE CENTER   CLOUDY    81  63  54 S7        29.96S
PRESTON        PTCLDY    81  62  53 S6        29.98F
OWATONNA       CLEAR     82  66  57 NE5       29.94S
FARIBAULT      PTCLDY    81  68  65 SE6       29.93S
$$

...ELSEWHERE IN MINNESOTA...


CITY           SKY/WX    TMP DP  RH WIND       PRES   REMARKS
MINNEAPOLIS    CLOUDY    84  71  65 SE8       29.91S
INTNL FALLS    CLOUDY    56  53  90 NW6       30.04R
DULUTH         CLOUDY    70  70 100 N5        29.95F
RED WING       CLOUDY    82  66  57 E3        29.92R
REDWOOD FALLS  CLOUDY    65  61  87 N7        29.93F
MANKATO        PTCLDY    82  67  60 S6        29.91S
WORTHINGTON    CLOUDY    66  64  93 N9        29.94R
FAIRMONT       CLOUDY    81  65  58 S8        29.91S
$$

...SOUTHWEST WISCONSIN...


CITY           SKY/WX    TMP DP  RH WIND       PRES   REMARKS
LA CROSSE      CLEAR     87  65  47 SE7       29.95F
PRAIRIE DU CHI CLEAR     85  61  44 E5        29.97F
BOSCOBEL       CLEAR     83  66  56 CALM      29.99S
LONE ROCK      CLEAR     82  64  54 E5        30.00S
PLATTEVILLE    CLEAR     83  64  53 SE5       30.02F
FORT MC COY    CLEAR     79  67  66 SE3       29.99F
CAMP DOUGLAS   CLEAR     79  68  69 CALM      30.00S
MAUSTON-NEW LI CLEAR     76  69  79 CALM      30.00S
VIROQUA        FAIR      81  66  60 SE6       30.02S
WIS DELLS        N/A    N/A N/A N/A SE3       30.02
$$

...ELSEWHERE IN WISCONSIN...


CITY           SKY/WX    TMP DP  RH WIND       PRES   REMARKS
MILWAUKEE      PTCLDY    81  66  60 SE6       30.04S
MADISON        CLEAR     81  66  60 CALM      30.02S
GREEN BAY      CLEAR     80  69  69 S6        30.02S
EAU CLAIRE     PTCLDY    82  67  60 SE6       29.94F
BLACK RVR FLS  FAIR      83  63  50 SE3       29.97F
MEDFORD        CLOUDY    75  66  74 SE3       30.02S
WAUSAU         CLEAR     80  65  59 S7        30.01S
WIS RAPIDS     CLEAR     78  69  73 CALM      30.02F
MARSHFIELD     CLEAR     78  64  61 S5        30.01F
RICE LAKE      MOCLDY    79  69  70 SE5       29.98S
$$

...NORTHEAST IOWA...


CITY           SKY/WX    TMP DP  RH WIND       PRES   REMARKS
WATERLOO       CLEAR     84  61  45 S7        29.95S
DUBUQUE        CLEAR     81  65  58 SE6       30.02S
DECORAH        PTCLDY    82  64  54 SE6       29.97F
MASON CITY     CLEAR     80  62  54 S9        29.96S
CHARLES CITY   CLEAR     82  63  51 S6        29.97S
OELWEIN        CLEAR     82  63  51 SE7       29.99S
$$

...ELSEWHERE IN IOWA...


CITY           SKY/WX    TMP DP  RH WIND       PRES   REMARKS
DES MOINES     MOCLDY    86  64  47 SE8       29.94R
IOWA CITY      CLEAR     86  64  47 SE5       29.99S
FORT DODGE     CLEAR     85  63  47 SE6       29.94R
MARSHALLTOWN   CLEAR     85  64  49 S7        29.95S
CEDAR RAPIDS   CLEAR     83  63  50 SE7       29.97F
$$

...NORTHERN ILLINOIS...


CITY           SKY/WX    TMP DP  RH WIND       PRES   REMARKS
CHICAGO-OHARE  CLEAR     86  64  47 E9        30.03S
CHICAGO-MIDWAY CLEAR     87  66  49 E8        30.03S
MOLINE         CLEAR     82  68  62 SE6       29.99S
ROCKFORD       PTCLDY    83  63  50 SE5       30.03S
PEORIA         CLEAR     87  63  44 E5        30.01S
$$

NOTE: "FAIR" INDICATES FEW OR NO CLOUDS BELOW 12,000 FEET WITH NO
SIGNIFICANT WEATHER AND/OR OBSTRUCTIONS TO VISIBILITY. WIND
SPEEDS ARE IN MILES-PER-HOUR.




USA.gov is the U.S. government's official web portal to all federal, state and local government web resources and services.